RYR7SC LGIR-LOWW

Flight info

Callsign RYR7SC
Flight time N/A
Altitude 36000
Route EPALO M749 DIRMI UL613 XANIS DCT DIMIS DCT GACMO DCT OBUTI OBUTI2W
Aircraft B738/M-SDE3FGILRWY/SB1

Departure

Time 2026-04-29 16:09
Airport Heraklion International Nikos Kazantzakis Airport (LGIR)

Arrival

Time N/A
Airport Vienna International Airport (LOWW)
Time Latitude Longitude Altitude Speed Heading
2026-04-29 15:45 35.33874 25.17427 90 ft 0 kts 316°
2026-04-29 16:04 35.33883 25.17417 93 ft 7 kts 316°
2026-04-29 16:05 35.33916 25.17413 90 ft 5 kts 59°
2026-04-29 16:05 35.33913 25.17490 90 ft 16 kts 95°
2026-04-29 16:05 35.33899 25.17686 91 ft 27 kts 95°
2026-04-29 16:05 35.33884 25.17907 91 ft 25 kts 95°
2026-04-29 16:06 35.33869 25.18114 94 ft 24 kts 95°
2026-04-29 16:06 35.33855 25.18308 92 ft 23 kts 95°
2026-04-29 16:06 35.33842 25.18497 93 ft 22 kts 95°
2026-04-29 16:06 35.33829 25.18681 89 ft 21 kts 95°
2026-04-29 16:07 35.33821 25.18798 89 ft 12 kts 95°
2026-04-29 16:07 35.33819 25.18832 89 ft 2 kts 93°
2026-04-29 16:07 35.33818 25.18852 89 ft 2 kts 93°
2026-04-29 16:07 35.33816 25.18889 89 ft 9 kts 91°
2026-04-29 16:08 35.33852 25.18989 88 ft 15 kts 57°
2026-04-29 16:08 35.33907 25.19063 88 ft 3 kts 338°
2026-04-29 16:08 35.33908 25.19034 90 ft 4 kts 272°
2026-04-29 16:08 35.33922 25.18818 88 ft 58 kts 275°
2026-04-29 16:09 35.33977 25.18044 92 ft 122 kts 275°
2026-04-29 16:09 35.34070 25.16808 220 ft 160 kts 278°
2026-04-29 16:09 35.34222 25.15390 769 ft 173 kts 280°
2026-04-29 16:09 35.34727 25.14110 1482 ft 175 kts 323°
2026-04-29 16:10 35.35928 25.13549 1802 ft 200 kts 349°
2026-04-29 16:10 35.37371 25.13168 2036 ft 223 kts 347°
2026-04-29 16:10 35.38914 25.12721 2425 ft 233 kts 347°
2026-04-29 16:10 35.40491 25.12231 3022 ft 234 kts 346°
2026-04-29 16:11 35.42092 25.11712 3445 ft 247 kts 345°
2026-04-29 16:11 35.43794 25.11139 3895 ft 259 kts 345°
2026-04-29 16:11 35.45537 25.10534 4704 ft 260 kts 344°
2026-04-29 16:11 35.47275 25.09920 5532 ft 261 kts 344°
2026-04-29 16:12 35.49033 25.09290 6258 ft 266 kts 344°
2026-04-29 16:12 35.50819 25.08644 6981 ft 269 kts 343°
2026-04-29 16:12 35.52617 25.07990 7730 ft 270 kts 343°
2026-04-29 16:12 35.54427 25.07328 8469 ft 273 kts 343°
2026-04-29 16:13 35.56256 25.06657 9199 ft 276 kts 343°
2026-04-29 16:13 35.58103 25.05978 9945 ft 278 kts 343°
2026-04-29 16:13 35.59978 25.05289 10451 ft 289 kts 343°
2026-04-29 16:13 35.61982 25.04550 10593 ft 312 kts 343°
2026-04-29 16:14 35.64127 25.03759 10794 ft 332 kts 343°
2026-04-29 16:14 35.66375 25.02930 11239 ft 341 kts 342°
2026-04-29 16:14 35.68660 25.02087 11877 ft 344 kts 342°
2026-04-29 16:14 35.70959 25.01238 12574 ft 347 kts 342°
2026-04-29 16:15 35.73266 25.00308 13226 ft 351 kts 339°
2026-04-29 16:15 35.75459 24.99294 13883 ft 354 kts 338°
2026-04-29 16:15 35.77767 24.98185 14520 ft 358 kts 337°
2026-04-29 16:15 35.80091 24.97064 15196 ft 360 kts 337°
2026-04-29 16:16 35.82439 24.95939 15875 ft 363 kts 337°
2026-04-29 16:16 35.84803 24.94815 16532 ft 366 kts 337°
2026-04-29 16:16 35.87163 24.93699 17171 ft 370 kts 337°
2026-04-29 16:16 35.89574 24.92562 17818 ft 373 kts 337°
2026-04-29 16:17 35.92008 24.91415 18449 ft 376 kts 337°
2026-04-29 16:17 35.94466 24.90257 19012 ft 379 kts 337°
2026-04-29 16:17 35.96935 24.89092 19593 ft 382 kts 337°
2026-04-29 16:17 35.99427 24.87917 20137 ft 385 kts 337°
2026-04-29 16:18 36.01922 24.86739 20672 ft 388 kts 337°
2026-04-29 16:18 36.04440 24.85508 21212 ft 390 kts 333°
2026-04-29 16:18 36.06808 24.83877 21727 ft 391 kts 323°
2026-04-29 16:18 36.08962 24.81817 22262 ft 393 kts 320°
2026-04-29 16:19 36.11091 24.79681 22767 ft 396 kts 319°
2026-04-29 16:19 36.13231 24.77522 23264 ft 399 kts 319°
2026-04-29 16:19 36.15389 24.75350 23738 ft 402 kts 319°
2026-04-29 16:19 36.17565 24.73171 24167 ft 403 kts 319°
2026-04-29 16:20 36.19755 24.70987 24633 ft 404 kts 319°
2026-04-29 16:20 36.21949 24.68802 25078 ft 406 kts 319°
2026-04-29 16:20 36.24150 24.66613 25498 ft 407 kts 319°
2026-04-29 16:20 36.26369 24.64405 25832 ft 412 kts 319°
2026-04-29 16:21 36.28613 24.62171 26185 ft 414 kts 319°
2026-04-29 16:21 36.30861 24.59932 26614 ft 415 kts 319°
2026-04-29 16:21 36.33116 24.57684 27039 ft 416 kts 319°
2026-04-29 16:21 36.35375 24.55430 27424 ft 418 kts 319°
2026-04-29 16:22 36.37643 24.53165 27789 ft 420 kts 319°
2026-04-29 16:22 36.39923 24.50886 28147 ft 422 kts 319°